WEINA 2 (47303 NORAD) Tracking and Keplerian Element Data

This shows tracking and keplerian element data for the satellite.

Feedback or suggestion? Click here.




ElementValue
Catalog47303
NameWEINA 2
Epoch Orbit268
Epoch Day14.98949394
Epoch Year2021
RAAN264.9063
Inclination98.272
Eccentricity0.0001572
Argument of Perigee83.2437
Mean Anonmoly276.9005
Mean Motion14.59105243
Decay Rate5.067E-05
L11 47303U 20103B 21014.98949394 .00005067 00000-0 10862-2 0 9993
L22 47303 98.2720 264.9063 0001572 83.2437 276.9005 14.59105243 2688

Live tracking and technical data element details for WEINA 2 (NORAD 47303). WEINA 2 can be tracked NOW for your location showing map with azimuth and elevation plus other details from your city location.

Track the satellite on the map from your city or location and see movement details for azimuth, elevation, latitude, longitude, range, height, and movement on the map or in text.







IsCatalogInMostPopularTable: catalog: 47303, numindb: 6
Update: records affected: 1



GetName: 47303 WEINA 2

Hit Count: updated at: Sun, 17 Jan 2021 09:12:31 GMT